Location: Bastrop State Park
(30.1090°N, 97.2819°W)
Time: 01:58:25
(UTC-05:00)

ISS - Visible Passes

Search period start: 26 October 2014 00:00
Search period end: 04 November 2014 23:00
Orbit: 412 x 416 km, 51.6° (Epoch: 26 October)

Date Brightness Start Highest point End Pass type
(mag) Time Alt. Az. Time Alt. Az. Time Alt. Az.
26 Oct -3.3 20:13:31 10° NW 20:16:37 70° N 20:16:37 70° N visible
27 Oct -2.6 19:24:29 10° NNW 19:27:35 35° NE 19:30:20 12° ESE visible
27 Oct 0.0 21:02:16 10° W 21:03:15 13° WSW 21:03:15 13° WSW visible
28 Oct -1.2 20:11:59 10° WNW 20:14:51 27° SW 20:17:17 13° S visible
29 Oct -2.7 19:22:21 10° NW 19:25:38 60° SW 19:28:54 10° SSE visible
31 Oct -0.2 19:21:09 10° W 19:23:19 16° SW 19:25:29 10° SSW visible
